This is the latest recevied weather packets stored in our database for station/object DH0DM-13. If no packets are shown the sender has not sent any weather packets the latest 10 day(s).
| Time | Temp. | Humidity | Pressure | Rain* | Wind** | Luminosity | Snow |
|---|---|---|---|---|---|---|---|
| 1787831532 | 25.56° C | 55% | 991.5 hPa | 0 mm | 8.49 m/s, 56° | - | - |
| 1787830931 | 25° C | 56% | 991.5 hPa | 0 mm | 1.34 m/s, 336° | - | - |
| 1787830330 | 25° C | 56% | 991.6 hPa | 0 mm | 0.89 m/s, 112° | - | - |
| 1787829730 | 25° C | 56% | 991.6 hPa | 0 mm | 9.83 m/s, 85° | - | - |
| 1787829129 | 25° C | 56% | 991.6 hPa | 0 mm | 12.07 m/s, 87° | - | - |
| 1787828528 | 24.44° C | 58% | 991.8 hPa | 0 mm | 4.92 m/s, 98° | - | - |
| 1787827927 | 24.44° C | 59% | 992 hPa | 0 mm | 6.71 m/s, 72° | - | - |
| 1787827326 | 24.44° C | 60% | 992.1 hPa | 0 mm | 2.68 m/s, 216° | - | - |
| 1787826725 | 23.89° C | 59% | 991.9 hPa | 0 mm | 8.05 m/s, 44° | - | - |
| 1787826124 | 23.89° C | 60% | 992.1 hPa | 0 mm | 10.28 m/s, 82° | - | - |
| 1787825523 | 23.33° C | 62% | 992.1 hPa | 0 mm | 4.92 m/s, 54° | - | - |
| 1787824922 | 23.33° C | 62% | 992.2 hPa | 0 mm | 6.71 m/s, 57° | - | - |
| 1787824321 | 22.78° C | 63% | 992.2 hPa | 0 mm | 7.15 m/s, 66° | - | - |
| 1787823720 | 23.33° C | 62% | 992.1 hPa | 0 mm | 6.26 m/s, 106° | - | - |
| 1787823119 | 22.78° C | 63% | 992.3 hPa | 0 mm | 9.39 m/s, 66° | - | - |
| 1787822518 | 22.22° C | 65% | 992.2 hPa | 0 mm | 4.92 m/s, 46° | - | - |
| 1787821918 | 22.78° C | 64% | 992.3 hPa | 0 mm | 6.71 m/s, 85° | - | - |
| 1787821317 | 22.22° C | 65% | 992.4 hPa | 0 mm | 7.6 m/s, 69° | - | - |
| 1787820716 | 21.67° C | 67% | 992.3 hPa | 0 mm | 6.71 m/s, 28° | - | - |
| 1787820115 | 21.67° C | 65% | 992.5 hPa | 0 mm | 6.71 m/s, 104° | - | - |
| 1787819514 | 21.67° C | 67% | 992.6 hPa | 0 mm | 4.92 m/s, 112° | - | - |
| 1787818913 | 21.11° C | 67% | 992.7 hPa | 0 mm | 4.02 m/s, 302° | - | - |
| 1787818312 | 21.11° C | 66% | 992.6 hPa | 0 mm | 5.36 m/s, 77° | - | - |
| 1787817711 | 21.11° C | 66% | 992.7 hPa | 0 mm | 6.26 m/s, 14° | - | - |
| 1787817110 | 21.11° C | 65% | 992.5 hPa | 0 mm | 6.71 m/s, 134° | - | - |
* Rain since midnight (hover to see other rain measurements)
** Current wind speed in m/s (hover to see current wind gust speed)